owner,sensor,date,latitude,longitude,vertical_datum,mass_concentration_of_oxygen_in_sea_water,qcFlag 
DISL,ioos:station:DISL:CATA:1,2017-12-01T00:30:00Z,30.3085,-88.1395,2.425,9.82,1111122 
DISL,ioos:station:DISL:CATA:1,2017-12-01T01:30:00Z,30.3085,-88.1395,2.43,9.61,1111122 
DISL,ioos:station:DISL:CATA:1,2017-12-01T02:30:00Z,30.3085,-88.1395,2.45,8.71,1111122 
DISL,ioos:station:DISL:CATA:1,2017-12-01T03:30:00Z,30.3085,-88.1395,2.421,8.47,1111122 
DISL,ioos:station:DISL:CATA:1,2017-12-01T04:30:00Z,30.3085,-88.1395,2.412,7.67,1111122 
DISL,ioos:station:DISL:CATA:1,2017-12-01T05:30:00Z,30.3085,-88.1395,2.372,8.84,1111122 
DISL,ioos:station:DISL:CATA:1,2017-12-01T06:30:00Z,30.3085,-88.1395,2.288,8.78,1111122 
DISL,ioos:station:DISL:CATA:1,2017-12-01T07:30:00Z,30.3085,-88.1395,2.194,8.78,1111122 
DISL,ioos:station:DISL:CATA:1,2017-12-01T08:30:00Z,30.3085,-88.1395,2.127,8.82,1111122 
DISL,ioos:station:DISL:CATA:1,2017-12-01T09:30:00Z,30.3085,-88.1395,2.077,9.22,1111122 
DISL,ioos:station:DISL:CATA:1,2017-12-01T10:30:00Z,30.3085,-88.1395,2.043,9.31,1111122 
DISL,ioos:station:DISL:CATA:1,2017-12-01T11:30:00Z,30.3085,-88.1395,2.012,9.37,1111122 
DISL,ioos:station:DISL:CATA:1,2017-12-01T12:30:00Z,30.3085,-88.1395,2.016,9.34,1111122 
DISL,ioos:station:DISL:CATA:1,2017-12-01T13:30:00Z,30.3085,-88.1395,2.048,9.52,1111122 
DISL,ioos:station:DISL:CATA:1,2017-12-01T14:30:00Z,30.3085,-88.1395,2.082,8.81,1111122 
DISL,ioos:station:DISL:CATA:1,2017-12-01T15:30:00Z,30.3085,-88.1395,2.146,9.49,1111122 
DISL,ioos:station:DISL:CATA:1,2017-12-01T16:30:00Z,30.3085,-88.1395,2.16,9.68,1111122 
DISL,ioos:station:DISL:CATA:1,2017-12-01T17:30:00Z,30.3085,-88.1395,2.189,9.34,1111122 
DISL,ioos:station:DISL:CATA:1,2017-12-01T18:30:00Z,30.3085,-88.1395,2.213,9.09,1111122 
DISL,ioos:station:DISL:CATA:1,2017-12-01T19:30:00Z,30.3085,-88.1395,2.248,9.11,1111122 
DISL,ioos:station:DISL:CATA:1,2017-12-01T20:30:00Z,30.3085,-88.1395,2.285,9.42,1111122 
DISL,ioos:station:DISL:CATA:1,2017-12-01T21:30:00Z,30.3085,-88.1395,2.348,9.43,1111122 
DISL,ioos:station:DISL:CATA:1,2017-12-01T22:30:00Z,30.3085,-88.1395,2.405,9.23,1111122 
DISL,ioos:station:DISL:CATA:1,2017-12-01T23:30:00Z,30.3085,-88.1395,2.443,9.28,1111122 
DISL,ioos:station:DISL:CATA:1,2017-12-02T00:30:00Z,30.3085,-88.1395,2.503,9.16,1111122 
DISL,ioos:station:DISL:CATA:1,2017-12-02T01:30:00Z,30.3085,-88.1395,2.519,9.3,1111122 
DISL,ioos:station:DISL:CATA:1,2017-12-02T02:30:00Z,30.3085,-88.1395,2.506,9.34,1111122 
DISL,ioos:station:DISL:CATA:1,2017-12-02T03:30:00Z,30.3085,-88.1395,2.492,8.82,1111122 
DISL,ioos:station:DISL:CATA:1,2017-12-02T04:30:00Z,30.3085,-88.1395,2.459,8.01,1111122 
DISL,ioos:station:DISL:CATA:1,2017-12-02T05:30:00Z,30.3085,-88.1395,2.4,7.38,1111122 
DISL,ioos:station:DISL:CATA:1,2017-12-02T06:30:00Z,30.3085,-88.1395,2.338,6.81,1111122 
DISL,ioos:station:DISL:CATA:1,2017-12-02T07:00:00Z,30.3085,-88.1395,2.297,7.75,1111122 
DISL,ioos:station:DISL:CATA:1,2017-12-02T08:30:00Z,30.3085,-88.1395,2.156,9.12,1111122 
DISL,ioos:station:DISL:CATA:1,2017-12-02T09:00:00Z,30.3085,-88.1395,2.12,9.39,1111122 
DISL,ioos:station:DISL:CATA:1,2017-12-02T10:30:00Z,30.3085,-88.1395,2.031,9.6,1111122 
DISL,ioos:station:DISL:CATA:1,2017-12-02T11:00:00Z,30.3085,-88.1395,2.012,9.66,1111122 
DISL,ioos:station:DISL:CATA:1,2017-12-02T12:00:00Z,30.3085,-88.1395,1.997,9.63,1111122 
DISL,ioos:station:DISL:CATA:1,2017-12-02T13:30:00Z,30.3085,-88.1395,2.007,9.61,1111122 
DISL,ioos:station:DISL:CATA:1,2017-12-02T14:30:00Z,30.3085,-88.1395,2.023,9.49,1111122 
DISL,ioos:station:DISL:CATA:1,2017-12-02T15:30:00Z,30.3085,-88.1395,2.079,9.35,1111122 
DISL,ioos:station:DISL:CATA:1,2017-12-02T16:30:00Z,30.3085,-88.1395,2.115,9.49,1111122 
DISL,ioos:station:DISL:CATA:1,2017-12-02T17:30:00Z,30.3085,-88.1395,2.171,9.74,1111122 
DISL,ioos:station:DISL:CATA:1,2017-12-02T18:30:00Z,30.3085,-88.1395,2.217,9.91,1111122 
DISL,ioos:station:DISL:CATA:1,2017-12-02T19:30:00Z,30.3085,-88.1395,2.249,9.31,1111122 
DISL,ioos:station:DISL:CATA:1,2017-12-02T20:30:00Z,30.3085,-88.1395,2.281,9.37,1111122 
DISL,ioos:station:DISL:CATA:1,2017-12-02T21:30:00Z,30.3085,-88.1395,2.326,9.42,1111122 
DISL,ioos:station:DISL:CATA:1,2017-12-02T22:30:00Z,30.3085,-88.1395,2.397,9.47,1111122 
DISL,ioos:station:DISL:CATA:1,2017-12-02T23:30:00Z,30.3085,-88.1395,2.45,9.31,1111122 
DISL,ioos:station:DISL:CATA:1,2017-12-03T00:30:00Z,30.3085,-88.1395,2.51,9.15,1111122 
DISL,ioos:station:DISL:CATA:1,2017-12-03T01:30:00Z,30.3085,-88.1395,2.562,9.12,1111122 
DISL,ioos:station:DISL:CATA:1,2017-12-03T02:30:00Z,30.3085,-88.1395,2.576,9.06,1111122 
DISL,ioos:station:DISL:CATA:1,2017-12-03T03:30:00Z,30.3085,-88.1395,2.57,8.96,1111122 
DISL,ioos:station:DISL:CATA:1,2017-12-03T04:30:00Z,30.3085,-88.1395,2.548,8.66,1111122 
DISL,ioos:station:DISL:CATA:1,2017-12-03T05:30:00Z,30.3085,-88.1395,2.492,7.69,1111122 
DISL,ioos:station:DISL:CATA:1,2017-12-03T06:30:00Z,30.3085,-88.1395,2.421,7.0,1111122 
DISL,ioos:station:DISL:CATA:1,2017-12-03T07:30:00Z,30.3085,-88.1395,2.319,8.94,1111122 
DISL,ioos:station:DISL:CATA:1,2017-12-03T08:30:00Z,30.3085,-88.1395,2.201,9.09,1111122 
DISL,ioos:station:DISL:CATA:1,2017-12-03T09:30:00Z,30.3085,-88.1395,2.099,9.19,1111122 
DISL,ioos:station:DISL:CATA:1,2017-12-03T10:30:00Z,30.3085,-88.1395,2.025,8.98,1111122 
DISL,ioos:station:DISL:CATA:1,2017-12-03T11:30:00Z,30.3085,-88.1395,1.975,8.81,1111122 
DISL,ioos:station:DISL:CATA:1,2017-12-03T12:30:00Z,30.3085,-88.1395,1.959,8.78,1111122 
DISL,ioos:station:DISL:CATA:1,2017-12-03T13:30:00Z,30.3085,-88.1395,1.969,8.91,1111122 
DISL,ioos:station:DISL:CATA:1,2017-12-03T14:30:00Z,30.3085,-88.1395,1.978,8.89,1111122 
DISL,ioos:station:DISL:CATA:1,2017-12-03T15:30:00Z,30.3085,-88.1395,2.004,8.99,1111122 
DISL,ioos:station:DISL:CATA:1,2017-12-03T16:30:00Z,30.3085,-88.1395,2.065,8.99,1111122 
DISL,ioos:station:DISL:CATA:1,2017-12-03T17:30:00Z,30.3085,-88.1395,2.11,8.99,1111122 
DISL,ioos:station:DISL:CATA:1,2017-12-03T18:30:00Z,30.3085,-88.1395,2.164,9.42,1111122 
DISL,ioos:station:DISL:CATA:1,2017-12-03T19:30:00Z,30.3085,-88.1395,2.237,9.49,1111122 
DISL,ioos:station:DISL:CATA:1,2017-12-03T20:30:00Z,30.3085,-88.1395,2.303,9.32,1111122 
DISL,ioos:station:DISL:CATA:1,2017-12-03T21:30:00Z,30.3085,-88.1395,2.369,9.24,1111122 
DISL,ioos:station:DISL:CATA:1,2017-12-03T22:30:00Z,30.3085,-88.1395,2.415,9.28,1111122 
DISL,ioos:station:DISL:CATA:1,2017-12-03T23:30:00Z,30.3085,-88.1395,2.486,9.16,1111122 
DISL,ioos:station:DISL:CATA:1,2017-12-04T00:30:00Z,30.3085,-88.1395,2.542,9.09,1111122 
DISL,ioos:station:DISL:CATA:1,2017-12-04T01:30:00Z,30.3085,-88.1395,2.605,9.13,1111122 
DISL,ioos:station:DISL:CATA:1,2017-12-04T02:00:00Z,30.3085,-88.1395,2.63,9.14,1111122 
DISL,ioos:station:DISL:CATA:1,2017-12-04T03:30:00Z,30.3085,-88.1395,2.661,8.87,1111122 
DISL,ioos:station:DISL:CATA:1,2017-12-04T04:30:00Z,30.3085,-88.1395,2.613,8.68,1111122 
DISL,ioos:station:DISL:CATA:1,2017-12-04T05:30:00Z,30.3085,-88.1395,2.572,7.89,1111122 
DISL,ioos:station:DISL:CATA:1,2017-12-04T06:30:00Z,30.3085,-88.1395,2.515,8.61,1111122 
DISL,ioos:station:DISL:CATA:1,2017-12-04T07:30:00Z,30.3085,-88.1395,2.428,8.85,1111122 
DISL,ioos:station:DISL:CATA:1,2017-12-04T08:30:00Z,30.3085,-88.1395,2.327,8.76,1111122 
DISL,ioos:station:DISL:CATA:1,2017-12-04T09:30:00Z,30.3085,-88.1395,2.215,8.78,1111122 
DISL,ioos:station:DISL:CATA:1,2017-12-04T10:30:00Z,30.3085,-88.1395,2.108,8.89,1111122 
DISL,ioos:station:DISL:CATA:1,2017-12-04T11:30:00Z,30.3085,-88.1395,2.036,8.67,1111122 
DISL,ioos:station:DISL:CATA:1,2017-12-04T12:30:00Z,30.3085,-88.1395,1.984,8.59,1111122 
DISL,ioos:station:DISL:CATA:1,2017-12-04T13:30:00Z,30.3085,-88.1395,1.973,8.68,1111122 
DISL,ioos:station:DISL:CATA:1,2017-12-04T14:30:00Z,30.3085,-88.1395,1.972,8.72,1111122 
DISL,ioos:station:DISL:CATA:1,2017-12-04T15:30:00Z,30.3085,-88.1395,1.967,8.81,1111122 
DISL,ioos:station:DISL:CATA:1,2017-12-04T16:30:00Z,30.3085,-88.1395,1.994,8.85,1111122 
DISL,ioos:station:DISL:CATA:1,2017-12-04T17:30:00Z,30.3085,-88.1395,2.061,9.01,1111122 
DISL,ioos:station:DISL:CATA:1,2017-12-04T18:30:00Z,30.3085,-88.1395,2.114,8.4,1111122 
DISL,ioos:station:DISL:CATA:1,2017-12-04T19:30:00Z,30.3085,-88.1395,2.18,9.02,1111122 
DISL,ioos:station:DISL:CATA:1,2017-12-04T20:30:00Z,30.3085,-88.1395,2.242,9.19,1111122 
DISL,ioos:station:DISL:CATA:1,2017-12-04T21:30:00Z,30.3085,-88.1395,2.303,9.15,1111122 
DISL,ioos:station:DISL:CATA:1,2017-12-04T22:30:00Z,30.3085,-88.1395,2.382,9.07,1111122 
DISL,ioos:station:DISL:CATA:1,2017-12-04T23:30:00Z,30.3085,-88.1395,2.459,9.07,1111122 
DISL,ioos:station:DISL:CATA:1,2017-12-05T00:30:00Z,30.3085,-88.1395,2.527,8.99,1111122 
DISL,ioos:station:DISL:CATA:1,2017-12-05T01:30:00Z,30.3085,-88.1395,2.623,8.81,1111122 
DISL,ioos:station:DISL:CATA:1,2017-12-05T02:30:00Z,30.3085,-88.1395,2.693,8.68,1111122 
DISL,ioos:station:DISL:CATA:1,2017-12-05T03:30:00Z,30.3085,-88.1395,2.73,8.62,1111122 
DISL,ioos:station:DISL:CATA:1,2017-12-05T04:30:00Z,30.3085,-88.1395,2.752,8.57,1111122 
DISL,ioos:station:DISL:CATA:1,2017-12-05T05:30:00Z,30.3085,-88.1395,2.732,8.44,1111122 
DISL,ioos:station:DISL:CATA:1,2017-12-05T06:30:00Z,30.3085,-88.1395,2.691,7.83,1111122 
DISL,ioos:station:DISL:CATA:1,2017-12-05T07:30:00Z,30.3085,-88.1395,2.631,8.0,1111122 
DISL,ioos:station:DISL:CATA:1,2017-12-05T08:30:00Z,30.3085,-88.1395,2.553,8.4,1111122 
DISL,ioos:station:DISL:CATA:1,2017-12-05T09:30:00Z,30.3085,-88.1395,2.446,8.44,1111122 
DISL,ioos:station:DISL:CATA:1,2017-12-05T10:30:00Z,30.3085,-88.1395,2.335,8.37,1111122 
DISL,ioos:station:DISL:CATA:1,2017-12-05T11:30:00Z,30.3085,-88.1395,2.234,8.46,1111122 
DISL,ioos:station:DISL:CATA:1,2017-12-05T12:30:00Z,30.3085,-88.1395,2.156,8.39,1111122 
DISL,ioos:station:DISL:CATA:1,2017-12-05T13:30:00Z,30.3085,-88.1395,2.105,8.3,1111122 
DISL,ioos:station:DISL:CATA:1,2017-12-05T14:30:00Z,30.3085,-88.1395,2.059,8.38,1111122 
DISL,ioos:station:DISL:CATA:1,2017-12-05T15:30:00Z,30.3085,-88.1395,2.05,8.43,1111122 
DISL,ioos:station:DISL:CATA:1,2017-12-05T16:30:00Z,30.3085,-88.1395,2.054,8.55,1111122 
DISL,ioos:station:DISL:CATA:1,2017-12-05T17:30:00Z,30.3085,-88.1395,2.066,8.67,1111122 
DISL,ioos:station:DISL:CATA:1,2017-12-05T18:30:00Z,30.3085,-88.1395,2.118,7.72,1111122 
DISL,ioos:station:DISL:CATA:1,2017-12-05T19:30:00Z,30.3085,-88.1395,2.157,8.92,1111122 
DISL,ioos:station:DISL:CATA:1,2017-12-05T20:30:00Z,30.3085,-88.1395,2.208,9.03,1111122 
DISL,ioos:station:DISL:CATA:1,2017-12-05T21:30:00Z,30.3085,-88.1395,2.263,9.08,1111122 
DISL,ioos:station:DISL:CATA:1,2017-12-05T22:30:00Z,30.3085,-88.1395,2.334,9.03,1111122 
DISL,ioos:station:DISL:CATA:1,2017-12-05T23:30:00Z,30.3085,-88.1395,2.391,8.89,1111122 
DISL,ioos:station:DISL:CATA:1,2017-12-06T00:30:00Z,30.3085,-88.1395,2.463,8.74,1111122 
DISL,ioos:station:DISL:CATA:1,2017-12-06T01:30:00Z,30.3085,-88.1395,2.585,8.63,1111122 
DISL,ioos:station:DISL:CATA:1,2017-12-06T02:30:00Z,30.3085,-88.1395,2.606,8.54,1111122 
DISL,ioos:station:DISL:CATA:1,2017-12-06T03:30:00Z,30.3085,-88.1395,2.666,8.49,1111122 
DISL,ioos:station:DISL:CATA:1,2017-12-06T04:30:00Z,30.3085,-88.1395,2.705,8.4,1111122 
DISL,ioos:station:DISL:CATA:1,2017-12-06T05:30:00Z,30.3085,-88.1395,2.626,7.68,1111122 
DISL,ioos:station:DISL:CATA:1,2017-12-06T06:30:00Z,30.3085,-88.1395,2.606,8.04,1111122 
DISL,ioos:station:DISL:CATA:1,2017-12-06T07:30:00Z,30.3085,-88.1395,2.545,8.46,1111122 
DISL,ioos:station:DISL:CATA:1,2017-12-06T08:30:00Z,30.3085,-88.1395,2.499,8.37,1111122 
DISL,ioos:station:DISL:CATA:1,2017-12-06T09:30:00Z,30.3085,-88.1395,2.417,8.25,1111122 
DISL,ioos:station:DISL:CATA:1,2017-12-06T10:30:00Z,30.3085,-88.1395,2.284,8.04,1111122 
DISL,ioos:station:DISL:CATA:1,2017-12-06T11:30:00Z,30.3085,-88.1395,2.19,7.95,1111122 
DISL,ioos:station:DISL:CATA:1,2017-12-06T12:30:00Z,30.3085,-88.1395,2.081,7.91,1111122 
DISL,ioos:station:DISL:CATA:1,2017-12-06T13:30:00Z,30.3085,-88.1395,2.019,7.91,1111122 
DISL,ioos:station:DISL:CATA:1,2017-12-06T14:30:00Z,30.3085,-88.1395,1.984,8.03,1111122 
DISL,ioos:station:DISL:CATA:1,2017-12-06T15:30:00Z,30.3085,-88.1395,1.94,7.95,1111122 
DISL,ioos:station:DISL:CATA:1,2017-12-06T16:30:00Z,30.3085,-88.1395,1.885,8.03,1111122 
DISL,ioos:station:DISL:CATA:1,2017-12-06T17:30:00Z,30.3085,-88.1395,1.846,8.15,1111122 
DISL,ioos:station:DISL:CATA:1,2017-12-06T18:30:00Z,30.3085,-88.1395,1.798,8.09,1111122 
DISL,ioos:station:DISL:CATA:1,2017-12-06T19:30:00Z,30.3085,-88.1395,1.873,8.2,1111122 
DISL,ioos:station:DISL:CATA:1,2017-12-06T20:30:00Z,30.3085,-88.1395,1.981,8.17,1111122 
DISL,ioos:station:DISL:CATA:1,2017-12-06T21:30:00Z,30.3085,-88.1395,2.069,8.16,1111122 
DISL,ioos:station:DISL:CATA:1,2017-12-06T22:30:00Z,30.3085,-88.1395,2.16,8.23,1111122 
DISL,ioos:station:DISL:CATA:1,2017-12-06T23:30:00Z,30.3085,-88.1395,2.206,8.18,1111122 
DISL,ioos:station:DISL:CATA:1,2017-12-07T00:30:00Z,30.3085,-88.1395,2.263,8.3,1111122 
DISL,ioos:station:DISL:CATA:1,2017-12-07T01:30:00Z,30.3085,-88.1395,2.253,8.25,1111122 
DISL,ioos:station:DISL:CATA:1,2017-12-07T02:30:00Z,30.3085,-88.1395,2.267,8.23,1111122 
DISL,ioos:station:DISL:CATA:1,2017-12-07T03:30:00Z,30.3085,-88.1395,2.389,8.37,1111122 
DISL,ioos:station:DISL:CATA:1,2017-12-07T04:30:00Z,30.3085,-88.1395,2.446,8.38,1111122 
DISL,ioos:station:DISL:CATA:1,2017-12-07T05:30:00Z,30.3085,-88.1395,2.472,8.26,1111122 
DISL,ioos:station:DISL:CATA:1,2017-12-07T06:30:00Z,30.3085,-88.1395,2.47,8.22,1111122 
DISL,ioos:station:DISL:CATA:1,2017-12-07T07:30:00Z,30.3085,-88.1395,2.477,8.15,1111122 
DISL,ioos:station:DISL:CATA:1,2017-12-07T08:30:00Z,30.3085,-88.1395,2.441,8.12,1111122 
DISL,ioos:station:DISL:CATA:1,2017-12-07T09:30:00Z,30.3085,-88.1395,2.412,8.12,1111122 
DISL,ioos:station:DISL:CATA:1,2017-12-07T10:30:00Z,30.3085,-88.1395,2.345,8.25,1111122 
DISL,ioos:station:DISL:CATA:1,2017-12-07T11:30:00Z,30.3085,-88.1395,2.241,8.84,1111122 
DISL,ioos:station:DISL:CATA:1,2017-12-07T12:30:00Z,30.3085,-88.1395,2.139,8.76,1111122 
DISL,ioos:station:DISL:CATA:1,2017-12-07T13:30:00Z,30.3085,-88.1395,2.07,8.73,1111122 
DISL,ioos:station:DISL:CATA:1,2017-12-07T14:30:00Z,30.3085,-88.1395,2.005,8.64,1111122 
DISL,ioos:station:DISL:CATA:1,2017-12-07T15:30:00Z,30.3085,-88.1395,1.937,8.83,1111122 
DISL,ioos:station:DISL:CATA:1,2017-12-07T16:30:00Z,30.3085,-88.1395,1.919,8.8,1111122 
DISL,ioos:station:DISL:CATA:1,2017-12-07T17:30:00Z,30.3085,-88.1395,1.926,8.9,1111122 
DISL,ioos:station:DISL:CATA:1,2017-12-07T18:30:00Z,30.3085,-88.1395,1.966,8.71,1111122 
DISL,ioos:station:DISL:CATA:1,2017-12-07T19:30:00Z,30.3085,-88.1395,1.992,8.72,1111122 
DISL,ioos:station:DISL:CATA:1,2017-12-07T20:00:00Z,30.3085,-88.1395,1.994,8.73,1111122 
DISL,ioos:station:DISL:CATA:1,2017-12-07T22:30:00Z,30.3085,-88.1395,2.079,9.41,1111122 
DISL,ioos:station:DISL:CATA:1,2017-12-07T23:30:00Z,30.3085,-88.1395,2.088,8.97,1111122 
DISL,ioos:station:DISL:CATA:1,2017-12-08T00:30:00Z,30.3085,-88.1395,2.16,8.77,1111122 
DISL,ioos:station:DISL:CATA:1,2017-12-08T01:30:00Z,30.3085,-88.1395,2.223,9.25,1111122 
DISL,ioos:station:DISL:CATA:1,2017-12-08T02:30:00Z,30.3085,-88.1395,2.289,9.6,1111122 
DISL,ioos:station:DISL:CATA:1,2017-12-08T03:30:00Z,30.3085,-88.1395,2.357,9.39,1111122 
DISL,ioos:station:DISL:CATA:1,2017-12-08T04:30:00Z,30.3085,-88.1395,2.417,9.25,1111122 
DISL,ioos:station:DISL:CATA:1,2017-12-08T05:30:00Z,30.3085,-88.1395,2.468,9.0,1111122 
DISL,ioos:station:DISL:CATA:1,2017-12-08T06:30:00Z,30.3085,-88.1395,2.486,8.92,1111122 
DISL,ioos:station:DISL:CATA:1,2017-12-08T07:30:00Z,30.3085,-88.1395,2.468,8.88,1111122 
DISL,ioos:station:DISL:CATA:1,2017-12-08T08:30:00Z,30.3085,-88.1395,2.482,8.76,1111122 
DISL,ioos:station:DISL:CATA:1,2017-12-08T09:30:00Z,30.3085,-88.1395,2.449,8.75,1111122 
DISL,ioos:station:DISL:CATA:1,2017-12-08T10:30:00Z,30.3085,-88.1395,2.363,9.31,1111122 
DISL,ioos:station:DISL:CATA:1,2017-12-08T11:30:00Z,30.3085,-88.1395,2.315,9.39,1111122 
DISL,ioos:station:DISL:CATA:1,2017-12-08T12:30:00Z,30.3085,-88.1395,2.249,9.25,1111122 
DISL,ioos:station:DISL:CATA:1,2017-12-08T13:30:00Z,30.3085,-88.1395,2.196,9.28,1111122 
DISL,ioos:station:DISL:CATA:1,2017-12-08T14:30:00Z,30.3085,-88.1395,2.138,9.24,1111122 
DISL,ioos:station:DISL:CATA:1,2017-12-08T15:30:00Z,30.3085,-88.1395,2.047,9.28,1111122 
DISL,ioos:station:DISL:CATA:1,2017-12-08T16:30:00Z,30.3085,-88.1395,1.96,9.16,1111122 
DISL,ioos:station:DISL:CATA:1,2017-12-08T17:30:00Z,30.3085,-88.1395,1.93,9.03,1111122 
DISL,ioos:station:DISL:CATA:1,2017-12-08T18:30:00Z,30.3085,-88.1395,1.949,9.15,1111122 
DISL,ioos:station:DISL:CATA:1,2017-12-08T19:30:00Z,30.3085,-88.1395,2.027,8.79,1111122 
DISL,ioos:station:DISL:CATA:1,2017-12-08T20:30:00Z,30.3085,-88.1395,2.066,9.2,1111122 
DISL,ioos:station:DISL:CATA:1,2017-12-08T21:30:00Z,30.3085,-88.1395,2.047,9.5,1111122 
DISL,ioos:station:DISL:CATA:1,2017-12-08T22:30:00Z,30.3085,-88.1395,2.105,9.45,1111122 
DISL,ioos:station:DISL:CATA:1,2017-12-08T23:30:00Z,30.3085,-88.1395,2.134,9.65,1111122 
DISL,ioos:station:DISL:CATA:1,2017-12-09T00:30:00Z,30.3085,-88.1395,2.179,9.55,1111122 
DISL,ioos:station:DISL:CATA:1,2017-12-09T01:30:00Z,30.3085,-88.1395,2.188,9.77,1111122 
DISL,ioos:station:DISL:CATA:1,2017-12-09T02:30:00Z,30.3085,-88.1395,2.256,9.68,1111122 
DISL,ioos:station:DISL:CATA:1,2017-12-09T03:30:00Z,30.3085,-88.1395,2.318,9.64,1111122 
DISL,ioos:station:DISL:CATA:1,2017-12-09T04:30:00Z,30.3085,-88.1395,2.373,9.59,1111122 
DISL,ioos:station:DISL:CATA:1,2017-12-09T05:30:00Z,30.3085,-88.1395,2.388,9.41,1111122 
DISL,ioos:station:DISL:CATA:1,2017-12-09T06:30:00Z,30.3085,-88.1395,2.356,9.24,1111122 
DISL,ioos:station:DISL:CATA:1,2017-12-09T07:30:00Z,30.3085,-88.1395,2.366,9.44,1111122 
DISL,ioos:station:DISL:CATA:1,2017-12-09T08:30:00Z,30.3085,-88.1395,2.36,9.42,1111122 
DISL,ioos:station:DISL:CATA:1,2017-12-09T09:30:00Z,30.3085,-88.1395,2.345,9.73,1111122 
DISL,ioos:station:DISL:CATA:1,2017-12-09T10:30:00Z,30.3085,-88.1395,2.289,9.55,1111122 
DISL,ioos:station:DISL:CATA:1,2017-12-09T11:30:00Z,30.3085,-88.1395,2.222,9.44,1111122 
DISL,ioos:station:DISL:CATA:1,2017-12-09T12:30:00Z,30.3085,-88.1395,2.169,9.06,1111122 
DISL,ioos:station:DISL:CATA:1,2017-12-09T13:30:00Z,30.3085,-88.1395,2.112,9.11,1111122 
DISL,ioos:station:DISL:CATA:1,2017-12-09T14:30:00Z,30.3085,-88.1395,2.049,9.46,1111122 
DISL,ioos:station:DISL:CATA:1,2017-12-09T15:30:00Z,30.3085,-88.1395,2.013,9.56,1111122 
DISL,ioos:station:DISL:CATA:1,2017-12-09T16:30:00Z,30.3085,-88.1395,1.949,9.78,1111122 
DISL,ioos:station:DISL:CATA:1,2017-12-09T17:30:00Z,30.3085,-88.1395,1.94,9.68,1111122 
DISL,ioos:station:DISL:CATA:1,2017-12-09T18:30:00Z,30.3085,-88.1395,1.957,9.38,1111122 
DISL,ioos:station:DISL:CATA:1,2017-12-09T19:30:00Z,30.3085,-88.1395,1.955,10.1,1111122 
DISL,ioos:station:DISL:CATA:1,2017-12-09T20:30:00Z,30.3085,-88.1395,1.936,10.24,1111122 
DISL,ioos:station:DISL:CATA:1,2017-12-09T21:30:00Z,30.3085,-88.1395,1.934,10.63,1111122 
DISL,ioos:station:DISL:CATA:1,2017-12-09T22:30:00Z,30.3085,-88.1395,1.948,10.6,1111122 
DISL,ioos:station:DISL:CATA:1,2017-12-09T23:30:00Z,30.3085,-88.1395,1.995,10.45,1111122 
DISL,ioos:station:DISL:CATA:1,2017-12-10T00:30:00Z,30.3085,-88.1395,2.023,10.08,1111122 
DISL,ioos:station:DISL:CATA:1,2017-12-10T01:30:00Z,30.3085,-88.1395,2.057,9.87,1111122 
DISL,ioos:station:DISL:CATA:1,2017-12-10T02:30:00Z,30.3085,-88.1395,2.075,9.99,1111122 
DISL,ioos:station:DISL:CATA:1,2017-12-10T03:30:00Z,30.3085,-88.1395,2.064,9.93,1111122 
DISL,ioos:station:DISL:CATA:1,2017-12-10T04:30:00Z,30.3085,-88.1395,2.071,9.79,1111122 
DISL,ioos:station:DISL:CATA:1,2017-12-10T05:30:00Z,30.3085,-88.1395,2.053,9.83,1111122 
DISL,ioos:station:DISL:CATA:1,2017-12-10T06:30:00Z,30.3085,-88.1395,2.076,9.61,1111122 
DISL,ioos:station:DISL:CATA:1,2017-12-10T07:30:00Z,30.3085,-88.1395,2.088,9.58,1111122 
DISL,ioos:station:DISL:CATA:1,2017-12-10T08:00:00Z,30.3085,-88.1395,2.09,9.71,1111122 
DISL,ioos:station:DISL:CATA:1,2017-12-10T09:30:00Z,30.3085,-88.1395,2.05,9.49,1111122 
DISL,ioos:station:DISL:CATA:1,2017-12-10T10:30:00Z,30.3085,-88.1395,2.019,9.24,1111122 
DISL,ioos:station:DISL:CATA:1,2017-12-10T11:30:00Z,30.3085,-88.1395,1.989,9.32,1111122 
DISL,ioos:station:DISL:CATA:1,2017-12-10T12:30:00Z,30.3085,-88.1395,1.961,9.39,1111122 
DISL,ioos:station:DISL:CATA:1,2017-12-10T13:30:00Z,30.3085,-88.1395,1.94,9.08,1111122 
DISL,ioos:station:DISL:CATA:1,2017-12-10T14:30:00Z,30.3085,-88.1395,1.905,9.49,1111122 
DISL,ioos:station:DISL:CATA:1,2017-12-10T15:30:00Z,30.3085,-88.1395,1.862,9.69,1111122 
DISL,ioos:station:DISL:CATA:1,2017-12-10T16:30:00Z,30.3085,-88.1395,1.853,9.75,1111122 
DISL,ioos:station:DISL:CATA:1,2017-12-10T17:30:00Z,30.3085,-88.1395,1.853,10.03,1111122 
DISL,ioos:station:DISL:CATA:1,2017-12-10T18:30:00Z,30.3085,-88.1395,1.887,9.89,1111122 
DISL,ioos:station:DISL:CATA:1,2017-12-10T19:30:00Z,30.3085,-88.1395,1.913,9.56,1111122 
DISL,ioos:station:DISL:CATA:1,2017-12-10T20:30:00Z,30.3085,-88.1395,1.936,9.96,1111122 
DISL,ioos:station:DISL:CATA:1,2017-12-10T21:30:00Z,30.3085,-88.1395,1.959,10.24,1111122 
DISL,ioos:station:DISL:CATA:1,2017-12-10T22:30:00Z,30.3085,-88.1395,1.985,10.96,1111122 
DISL,ioos:station:DISL:CATA:1,2017-12-10T23:00:00Z,30.3085,-88.1395,2.023,10.98,1111122 
DISL,ioos:station:DISL:CATA:1,2017-12-11T00:30:00Z,30.3085,-88.1395,2.05,10.21,1111122 
DISL,ioos:station:DISL:CATA:1,2017-12-11T01:30:00Z,30.3085,-88.1395,2.086,10.19,1111122 
DISL,ioos:station:DISL:CATA:1,2017-12-11T02:30:00Z,30.3085,-88.1395,2.114,10.08,1111122 
DISL,ioos:station:DISL:CATA:1,2017-12-11T03:30:00Z,30.3085,-88.1395,2.121,10.09,1111122 
DISL,ioos:station:DISL:CATA:1,2017-12-11T04:30:00Z,30.3085,-88.1395,2.114,9.96,1111122 
DISL,ioos:station:DISL:CATA:1,2017-12-11T05:30:00Z,30.3085,-88.1395,2.091,9.88,1111122 
DISL,ioos:station:DISL:CATA:1,2017-12-11T06:30:00Z,30.3085,-88.1395,2.043,9.8,1111122 
DISL,ioos:station:DISL:CATA:1,2017-12-11T07:30:00Z,30.3085,-88.1395,2.016,9.91,1111122 
DISL,ioos:station:DISL:CATA:1,2017-12-11T08:30:00Z,30.3085,-88.1395,1.996,10.08,1111122 
DISL,ioos:station:DISL:CATA:1,2017-12-11T09:30:00Z,30.3085,-88.1395,1.972,10.0,1111122 
DISL,ioos:station:DISL:CATA:1,2017-12-11T10:30:00Z,30.3085,-88.1395,1.954,9.93,1111122 
DISL,ioos:station:DISL:CATA:1,2017-12-11T11:30:00Z,30.3085,-88.1395,1.924,9.98,1111122 
DISL,ioos:station:DISL:CATA:1,2017-12-11T12:30:00Z,30.3085,-88.1395,1.925,9.88,1111122 
DISL,ioos:station:DISL:CATA:1,2017-12-11T13:30:00Z,30.3085,-88.1395,1.925,9.5,1111122 
DISL,ioos:station:DISL:CATA:1,2017-12-11T14:30:00Z,30.3085,-88.1395,1.929,9.95,1111122 
DISL,ioos:station:DISL:CATA:1,2017-12-11T15:30:00Z,30.3085,-88.1395,1.931,10.01,1111122 
DISL,ioos:station:DISL:CATA:1,2017-12-11T16:30:00Z,30.3085,-88.1395,1.919,10.09,1111122 
DISL,ioos:station:DISL:CATA:1,2017-12-11T17:30:00Z,30.3085,-88.1395,1.918,10.15,1111122 
DISL,ioos:station:DISL:CATA:1,2017-12-11T18:30:00Z,30.3085,-88.1395,1.929,10.3,1111122 
DISL,ioos:station:DISL:CATA:1,2017-12-11T19:30:00Z,30.3085,-88.1395,1.962,10.44,1111122 
DISL,ioos:station:DISL:CATA:1,2017-12-11T20:30:00Z,30.3085,-88.1395,2.006,10.58,1111122 
DISL,ioos:station:DISL:CATA:1,2017-12-11T21:30:00Z,30.3085,-88.1395,2.031,10.52,1111122 
DISL,ioos:station:DISL:CATA:1,2017-12-11T22:30:00Z,30.3085,-88.1395,2.064,10.49,1111122 
DISL,ioos:station:DISL:CATA:1,2017-12-11T23:30:00Z,30.3085,-88.1395,2.101,10.61,1111122 
DISL,ioos:station:DISL:CATA:1,2017-12-12T00:30:00Z,30.3085,-88.1395,2.139,10.51,1111122 
DISL,ioos:station:DISL:CATA:1,2017-12-12T01:30:00Z,30.3085,-88.1395,2.166,10.67,1111122 
DISL,ioos:station:DISL:CATA:1,2017-12-12T02:30:00Z,30.3085,-88.1395,2.205,10.47,1111122 
DISL,ioos:station:DISL:CATA:1,2017-12-12T03:30:00Z,30.3085,-88.1395,2.214,10.07,1111122 
DISL,ioos:station:DISL:CATA:1,2017-12-12T04:30:00Z,30.3085,-88.1395,2.199,10.17,1111122 
DISL,ioos:station:DISL:CATA:1,2017-12-12T05:30:00Z,30.3085,-88.1395,2.181,10.22,1111122 
DISL,ioos:station:DISL:CATA:1,2017-12-12T06:30:00Z,30.3085,-88.1395,2.166,10.06,1111122 
DISL,ioos:station:DISL:CATA:1,2017-12-12T07:30:00Z,30.3085,-88.1395,2.136,9.79,1111122 